Home   Weather   Vilnius   Past weeks

Flag for Lithuania Past Weather in Vilnius, Lithuania — Yesterday and Last 2 Weeks

Now
55 °F

Fog.


Feels Like: 55 °F
Forecast: 53 / 69 °F
Wind: 3 mph from Southwest

Location: Vilnius Airport

Current Time: Sep 1, 2016 at 5:04:12 AM

Latest Report: Sep 1, 2016 at 4:20 AM


Visibility: 2 mi

Pressure: 30.18 "Hg

Humidity: 100%

Dew Point: 55 °F

Location of VilniusLocation

Past Weather in Vilnius — Graph

°F

Vilnius Temperature Yesterday

Maximum temperature yesterday: 64 °F (at 12:20 PM)
Minimum temperature yesterday: 45 °F (at 6:50 AM)
Average temperature yesterday: 58 °F

High & Low Weather Summary for the Past Weeks

 TemperatureHumidityPressure
High84 °F (Aug 29, 2:20 PM)100% (Aug 17, 8:50 AM)30.33 "Hg (Aug 17, 8:50 AM)
Low45 °F (Aug 31, 6:50 AM)32% (Aug 27, 4:20 PM)29.77 "Hg (Aug 17, 6:20 AM)
Average64 °F74%30.08 "Hg
* Reported Aug 17 3:20 AM — Sep 1 3:52 AM, Vilnius, Weather by CustomWeather, © 2016

Note: Actual official high and low records may vary slightly from our data, if they occured in-between our weather recording intervals... More about our weather records

Advertising

Vilnius Weather History for the Previous 24 Hours

Scroll right to see more
 ConditionsComfort  
Time TempWeatherWind HumidityBarometerVisibility
3:52 AM
Thu, Sep 1
55 °FFog.3 mph100%30.18 "Hg1 mi
2:50 AM55 °FFog.3 mph100%30.18 "Hg0 mi
2:20 AM55 °FFog.3 mph100%30.18 "Hg2 mi
1:50 AM55 °FFog.5 mph100%30.21 "Hg4 mi
1:20 AM57 °FPartly cloudy.5 mph94%30.21 "Hg5 mi
12:50 AM57 °FPassing clouds.5 mph94%30.21 "Hg5 mi
12:20 AM57 °FPartly cloudy.3 mph94%30.21 "Hg5 mi
11:50 PM
Wed, Aug 31
57 °FPartly cloudy.3 mph94%30.21 "Hg5 mi
11:20 PM57 °FPassing clouds.5 mph94%30.21 "HgN/A
10:50 PM59 °FPassing clouds.2 mph88%30.21 "HgN/A
10:20 PM59 °FPassing clouds.3 mph88%30.21 "HgN/A
9:50 PM59 °FPassing clouds.5 mph88%30.18 "HgN/A
9:20 PM59 °FPassing clouds.3 mph88%30.21 "HgN/A
8:50 PM63 °FPartly sunny.6 mph77%30.21 "HgN/A
8:20 PM63 °FMore clouds than sun.5 mph77%30.18 "HgN/A
7:50 PM63 °FMore clouds than sun.7 mph77%30.18 "HgN/A
7:20 PM64 °FMore clouds than sun.7 mph68%30.18 "HgN/A
6:50 PM64 °FMore clouds than sun.8 mph68%30.18 "HgN/A
6:20 PM64 °FOvercast.7 mph68%30.21 "HgN/A
5:50 PM64 °FBroken clouds.8 mph68%30.18 "HgN/A
5:20 PM64 °FPartly sunny.8 mph68%30.18 "HgN/A
4:50 PM64 °FPartly sunny.9 mph68%30.18 "HgN/A
4:20 PM64 °FPartly sunny.9 mph68%30.18 "HgN/A
3:50 PM64 °FPartly sunny.9 mph64%30.21 "HgN/A
2:50 PM64 °FPartly sunny.10 mph64%30.21 "HgN/A
2:20 PM64 °FPartly sunny.12 mph64%30.21 "HgN/A
1:50 PM63 °FPartly sunny.10 mph73%30.21 "HgN/A
1:20 PM63 °FPartly sunny.12 mph73%30.18 "HgN/A
12:50 PM64 °FPartly sunny.9 mph64%30.18 "HgN/A
12:20 PM64 °FPartly sunny.8 mph64%30.18 "HgN/A
11:50 AM63 °FPartly sunny.7 mph73%30.18 "HgN/A
11:20 AM61 °FPartly sunny.5 mph77%30.18 "HgN/A
10:50 AM59 °FPartly sunny.7 mph88%30.18 "HgN/A
10:20 AM55 °FBroken clouds.6 mph94%30.18 "HgN/A
9:50 AM54 °FPartly sunny.6 mph100%30.18 "HgN/A
9:20 AM52 °FPartly sunny.5 mph100%30.18 "Hg5 mi
8:59 AM52 °FRain. Fog.5 mph94%30.18 "Hg2 mi
7:50 AM48 °FFog.7 mph100%30.18 "Hg0 mi
7:20 AM46 °FFog.5 mph100%30.18 "Hg0 mi
6:50 AM45 °FFog.5 mph100%30.15 "Hg0 mi
6:20 AM46 °FCool.3 mph100%30.15 "Hg2 mi
5:50 AM48 °FFog.2 mph100%30.15 "Hg3 mi
5:04 AM48 °FCool.5 mph94%30.15 "Hg2 mi
Weather by CustomWeather, © 2016

See weather overviewHow to use our weather pages